Temp
11 11 11 11 10 10 10 9 9 9 10 10 10 10 10 10 11 9 9 11 11 11 12 12 11 11 11 11 11 11 11 11 11 11 12 11 11 11 11 11 12 12 12
11 11 11 11 11 10 10 9 9 10 9 10 9 10 10 9 9 10 9 9 11 11 11 11 12 12 11 11 11 11 11 10 11 11 11 11 11 11 11 11 11 11 12
11 12 11 11 11 10 10 9 10 10 11 9 10 10 10 9 8 10 9 9 9 10 10 10 11 11 11 11 10 11 11 11 11 11 11 11 11 11 11 11 11 11 11
12 12 10 11 11 10 10 10 9 9 9 9 9 9 9 8 8 8 8 9 8 8 9 9 9 9 10 10 10 10 10 10 10 11 11 11 11 11 11 11 11 11 11
12 12 11 11 11 11 11 10 10 9 9 9 9 9 9 9 8 8 8 7 8 8 8 9 9 9 9 9 9 9 9 9 9 10 10 10 10 11 10 11 11 11 11
11 11 11 11 10 9 10 10 9 10 9 9 10 10 9 9 8 8 8 8 8 7 7 7 7 7 8 8 8 8 8 8 9 9 8 9 9 10 10 10 10 10 10
11 11 11 10 10 9 9 10 9 9 9 9 8 9 9 9 8 8 8 8 8 7 7 6 7 7 6 7 7 7 8 7 8 8 8 9 9 8 9 9 9 9 10
11 10 9 8 8 8 8 8 8 8 9 8 8 9 10 10 10 8 8 8 8 8 7 6 6 6 7 6 6 7 7 7 7 7 7 7 8 8 8 8 9 9 9
10 10 9 8 8 7 8 8 8 8 8 8 8 8 9 10 10 11 8 8 7 6 7 5 5 5 5 5 5 5 6 6 6 7 6 6 7 8 8 8 8 8 9
10 10 9 9 9 8 6 6 7 7 7 7 8 8 7 8 8 10 9 7 7 6 5 5 4 4 4 4 4 5 6 6 5 6 6 6 6 6 7 7 7 8 8
8 9 9 8 7 6 5 6 5 5 5 5 6 6 6 6 6 6 8 7 6 5 5 4 3 3 3 3 4 3 5 5 5 4 5 5 5 6 5 6 7 7 7
6 5 6 6 5 4 3 3 3 2 2 2 2 2 2 2 3 4 5 7 7 5 4 3 2 2 3 3 3 3 3 3 4 4 4 4 4 5 5 5 5 6 7
4 4 4 3 3 2 1 1 1 0 -0 -1 -1 -0 -1 -0 -0 -0 -0 1 1 3 3 3 2 2 2 2 2 2 1 2 2 2 3 3 4 4 4 5 5 5 6
3 3 2 1 1 1 1 0 0 -1 -2 -1 -2 -1 -1 -2 -2 -2 -2 -2 -2 -1 0 1 2 2 1 1 1 1 1 1 1 2 2 2 3 3 3 4 4 5 5
2 1 0 0 -0 -1 -1 -2 -2 -2 -3 -3 -3 -3 -3 -3 -3 -3 -4 -4 -3 -2 -1 2 2 2 1 1 1 0 0 1 0 1 1 1 2 2 2 2 3 3 4
0 -0 -0 -1 -1 -2 -2 -3 -2 -2 -3 -3 -3 -3 -3 -2 -2 -3 -3 -3 -2 -2 -1 0 1 1 1 1 0 -0 -0 -1 -1 -1 -0 0 1 1 1 2 2 2 3
-1 -1 -1 -2 -2 -3 -3 -3 -4 -3 -3 -3 -3 -2 -2 -2 -2 -2 -2 -2 -2 -2 -1 -1 -0 -0 -0 -1 -1 -1 -1 -1 -1 -1 -1 -1 -0 0 1 1 1 1 1
-2 -2 -2 -3 -3 -3 -4 -4 -4 -3 -3 -3 -3 -3 -3 -3 -3 -3 -3 -3 -3 -3 -2 -2 -1 -1 -1 -1 -1 -1 -1 -1 -1 -1 -1 -2 -2 -1 -0 0 0 1 1
-3 -3 -3 -3 -4 -4 -4 -4 -4 -4 -4 -4 -4 -4 -4 -4 -4 -4 -4 -4 -4 -4 -3 -3 -3 -2 -2 -2 -2 -2 -2 -2 -2 -2 -2 -2 -3 -3 -2 -1 -0 -0 0
-3 -3 -3 -4 -4 -4 -4 -4 -4 -4 -4 -5 -5 -6 -6 -6 -6 -6 -5 -5 -5 -5 -4 -4 -4 -3 -3 -3 -3 -3 -2 -2 -2 -2 -2 -3 -3 -3 -3 -3 -2 -1 -1
-4 -4 -4 -4 -5 -5 -4 -5 -6 -5 -5 -5 -6 -6 -6 -7 -7 -7 -7 -7 -6 -6 -5 -4 -4 -4 -3 -3 -3 -3 -3 -3 -3 -3 -3 -3 -3 -3 -3 -3 -3 -3 -2
-4 -4 -5 -5 -5 -5 -6 -7 -7 -7 -7 -6 -6 -6 -7 -7 -8 -8 -9 -9 -9 -8 -7 -6 -6 -6 -5 -5 -5 -5 -5 -5 -5 -4 -4 -4 -4 -4 -3 -3 -3 -3 -3
-5 -5 -5 -6 -6 -6 -7 -7 -8 -8 -8 -8 -7 -7 -8 -8 -8 -8 -8 -9 -9 -10 -10 -9 -9 -8 -7 -7 -7 -7 -6 -6 -6 -5 -5 -5 -5 -5 -5 -4 -4 -4 -4
-5 -6 -6 -7 -7 -7 -8 -8 -9 -9 -9 -9 -8 -8 -8 -8 -8 -9 -9 -9 -9 -9 -9 -9 -9 -9 -8 -8 -8 -7 -7 -7 -7 -7 -6 -7 -6 -6 -6 -6 -5 -5 -5
-6 -6 -7 -8 -8 -8 -10 -10 -10 -11 -10 -10 -9 -9 -9 -10 -10 -10 -10 -10 -9 -9 -9 -8 -8 -9 -9 -9 -9 -8 -8 -8 -7 -7 -7 -7 -7 -7 -7 -6 -6 -6 -5
-6 -7 -8 -9 -9 -10 -11 -12 -12 -12 -11 -11 -11 -10 -10 -10 -10 -10 -10 -10 -10 -9 -9 -9 -9 -8 -8 -9 -8 -9 -8 -8 -8 -7 -7 -7 -7 -7 -7 -6 -6 -6 -6
Height
1560 1558 1556 1554 1553 1551 1549 1547 1545 1542 1539 1537 1536 1535 1534 1532 1531 1531 1530 1527 1527 1526 1526 1526 1525 1524 1525 1525 1526 1526 1525 1527 1529 1531 1533 1535 1538 1540 1543 1544 1547 1549 1552
1558 1556 1555 1553 1551 1549 1547 1545 1543 1540 1538 1536 1534 1532 1531 1530 1528 1527 1528 1525 1523 1523 1523 1522 1520 1520 1520 1520 1522 1523 1523 1524 1524 1527 1528 1530 1532 1534 1537 1540 1543 1545 1548
1556 1554 1553 1551 1550 1547 1543 1541 1538 1536 1534 1532 1530 1528 1527 1525 1525 1523 1523 1522 1519 1519 1518 1517 1517 1516 1515 1516 1516 1517 1519 1520 1522 1522 1523 1525 1527 1528 1531 1534 1538 1540 1543
1554 1552 1551 1548 1546 1544 1542 1540 1538 1535 1532 1530 1528 1526 1524 1522 1520 1518 1518 1517 1517 1516 1513 1513 1513 1512 1512 1511 1511 1512 1513 1514 1516 1517 1518 1519 1520 1522 1524 1528 1532 1534 1537
1551 1549 1546 1543 1541 1539 1537 1534 1532 1530 1528 1526 1524 1522 1520 1518 1517 1516 1515 1513 1511 1510 1511 1508 1508 1508 1508 1508 1507 1507 1507 1508 1509 1511 1512 1512 1514 1517 1519 1520 1524 1527 1530
1546 1544 1542 1539 1536 1533 1532 1530 1526 1524 1522 1520 1518 1515 1513 1511 1510 1509 1509 1509 1508 1506 1505 1503 1503 1503 1503 1503 1503 1502 1502 1502 1503 1504 1505 1505 1506 1509 1511 1514 1517 1519 1522
1542 1539 1537 1534 1531 1528 1525 1522 1519 1516 1513 1512 1510 1508 1505 1503 1502 1500 1500 1500 1501 1500 1500 1499 1498 1498 1499 1497 1497 1497 1496 1496 1497 1498 1498 1498 1500 1501 1504 1506 1508 1509 1514
1537 1533 1530 1527 1525 1521 1518 1515 1512 1509 1506 1505 1502 1501 1496 1496 1493 1491 1492 1492 1491 1492 1493 1494 1491 1489 1491 1493 1491 1491 1491 1490 1490 1491 1493 1493 1493 1495 1496 1500 1502 1502 1505
1530 1527 1523 1519 1515 1513 1510 1507 1505 1502 1499 1497 1496 1493 1488 1481 1485 1483 1479 1483 1484 1485 1485 1485 1485 1482 1483 1485 1485 1484 1484 1484 1484 1485 1486 1487 1487 1487 1490 1492 1493 1496 1498
1524 1520 1517 1513 1508 1504 1500 1497 1495 1493 1492 1487 1487 1484 1478 1477 1475 1474 1472 1473 1474 1476 1478 1477 1478 1478 1477 1478 1477 1478 1478 1478 1479 1479 1480 1480 1481 1481 1483 1485 1487 1489 1491
1517 1512 1508 1504 1500 1497 1494 1490 1486 1483 1481 1479 1478 1475 1471 1468 1468 1468 1465 1467 1467 1467 1469 1469 1470 1471 1472 1471 1472 1472 1471 1471 1472 1472 1473 1474 1475 1476 1476 1478 1480 1482 1484
1511 1506 1501 1497 1493 1489 1486 1484 1480 1476 1475 1472 1470 1467 1465 1460 1462 1459 1460 1459 1459 1459 1461 1462 1463 1464 1467 1466 1466 1465 1464 1464 1465 1466 1466 1467 1468 1470 1471 1472 1474 1475 1477
1503 1499 1494 1492 1489 1484 1482 1480 1477 1474 1469 1468 1467 1465 1462 1458 1456 1454 1454 1454 1453 1455 1456 1455 1457 1458 1460 1460 1460 1458 1458 1459 1460 1460 1461 1461 1462 1463 1464 1465 1466 1468 1470
1497 1492 1490 1488 1485 1481 1479 1477 1474 1470 1468 1466 1464 1461 1459 1456 1455 1454 1453 1454 1453 1451 1451 1448 1451 1452 1453 1453 1454 1452 1454 1453 1454 1455 1456 1456 1457 1457 1458 1460 1461 1462 1464
1492 1489 1487 1485 1481 1478 1475 1471 1468 1466 1465 1463 1461 1459 1455 1453 1451 1447 1448 1450 1451 1451 1449 1445 1445 1446 1447 1447 1448 1448 1448 1449 1447 1449 1450 1451 1451 1452 1453 1454 1455 1456 1457
1489 1487 1483 1481 1478 1475 1471 1467 1465 1463 1460 1459 1456 1455 1455 1453 1451 1450 1449 1448 1448 1447 1444 1442 1440 1442 1442 1441 1441 1441 1442 1442 1441 1441 1443 1445 1445 1446 1446 1448 1449 1450 1450
1486 1483 1480 1477 1474 1469 1466 1464 1461 1460 1459 1457 1454 1452 1450 1448 1447 1446 1444 1443 1442 1441 1437 1434 1436 1436 1436 1434 1434 1435 1435 1435 1435 1433 1434 1435 1437 1438 1440 1441 1442 1443 1444
1482 1479 1475 1471 1468 1465 1463 1461 1459 1457 1455 1453 1450 1447 1444 1442 1441 1439 1438 1436 1435 1434 1432 1430 1431 1430 1429 1428 1428 1428 1427 1427 1427 1428 1427 1428 1428 1428 1431 1432 1434 1436 1437
1477 1473 1470 1468 1465 1462 1460 1458 1455 1453 1450 1447 1444 1441 1438 1436 1434 1433 1431 1430 1429 1428 1426 1425 1423 1423 1421 1421 1420 1420 1420 1420 1419 1420 1420 1420 1420 1421 1421 1422 1424 1426 1428
1476 1472 1468 1465 1461 1458 1455 1454 1451 1449 1445 1441 1438 1435 1432 1430 1428 1426 1425 1423 1422 1420 1419 1418 1416 1414 1415 1415 1413 1412 1411 1411 1411 1411 1412 1412 1413 1412 1411 1412 1414 1415 1418
1473 1468 1464 1460 1457 1453 1450 1446 1445 1443 1439 1436 1433 1430 1427 1424 1419 1417 1416 1414 1414 1412 1411 1410 1409 1407 1407 1407 1406 1405 1403 1403 1403 1404 1403 1403 1405 1405 1404 1404 1404 1405 1407
1469 1464 1460 1456 1452 1449 1443 1440 1437 1435 1433 1429 1426 1423 1420 1416 1413 1410 1406 1404 1403 1403 1403 1403 1402 1400 1399 1399 1399 1398 1398 1397 1395 1398 1396 1395 1397 1395 1397 1398 1398 1398 1398
1464 1460 1455 1451 1448 1445 1439 1435 1431 1427 1424 1421 1418 1415 1412 1409 1405 1403 1401 1397 1395 1393 1393 1393 1393 1393 1392 1393 1393 1392 1391 1390 1390 1391 1390 1388 1389 1387 1387 1388 1389 1389 1389
1460 1455 1451 1447 1443 1440 1433 1427 1423 1419 1417 1413 1410 1407 1404 1401 1399 1396 1393 1391 1389 1388 1387 1386 1384 1384 1384 1385 1385 1385 1385 1384 1383 1383 1384 1381 1382 1380 1381 1380 1380 1379 1380
1456 1452 1447 1443 1438 1433 1427 1421 1416 1412 1409 1405 1403 1400 1397 1393 1391 1389 1386 1384 1382 1380 1379 1377 1376 1376 1375 1376 1377 1378 1376 1377 1375 1375 1376 1375 1375 1374 1374 1373 1372 1372 1372
1452 1447 1442 1438 1432 1427 1422 1415 1411 1407 1402 1398 1395 1392 1389 1386 1384 1382 1380 1378 1375 1373 1372 1370 1369 1367 1366 1367 1368 1368 1369 1368 1368 1367 1368 1369 1369 1369 1367 1365 1364 1364 1364
Wind_Speed
11 12 13 14 15 14 14 14 14 15 18 16 14 12 11 11 11 6 7 13 12 11 11 13 16 18 17 17 18 17 18 19 21 22 25 26 26 25 25 23 21 21 21
11 12 13 13 12 13 13 13 14 15 14 15 13 13 12 10 10 10 7 9 12 12 13 14 14 16 19 21 19 20 20 17 18 22 23 25 28 27 27 26 25 24 24
12 14 13 13 13 13 16 14 16 16 16 14 16 16 15 14 10 13 10 7 9 11 11 12 14 15 16 18 20 21 22 22 23 20 20 24 26 29 30 30 29 27 27
13 15 14 15 16 19 17 17 17 16 16 15 15 15 14 14 14 15 11 9 8 7 10 11 11 13 15 17 18 18 20 24 24 25 26 24 24 28 29 33 34 33 30
16 17 19 20 20 21 22 20 20 20 20 19 18 18 18 17 16 14 14 13 12 10 8 12 12 13 15 16 18 19 19 20 23 24 25 28 28 29 29 31 35 36 36
18 19 21 24 25 21 23 23 24 24 25 25 25 24 22 21 20 19 18 17 16 13 10 8 9 8 13 16 18 20 22 21 21 23 25 28 29 31 37 31 33 34 36
26 29 30 26 26 23 25 30 27 28 28 27 27 29 29 26 25 24 23 22 21 18 15 12 10 8 8 15 16 20 21 23 23 23 26 29 29 27 29 33 37 32 34
29 26 24 24 23 24 23 24 26 28 29 28 31 30 33 33 30 26 26 26 24 21 17 14 12 16 17 10 13 18 20 23 24 24 22 24 26 27 25 29 30 33 34
29 27 26 27 28 25 24 24 25 27 32 31 30 32 27 33 31 30 25 23 22 21 19 17 12 14 13 14 14 13 19 21 24 26 26 24 26 28 25 26 26 29 31
31 32 33 33 32 30 24 24 24 26 28 34 32 33 39 40 37 32 24 23 23 22 19 16 14 11 10 10 12 16 19 21 23 25 27 28 26 26 27 25 23 25 26
28 32 34 34 33 31 25 29 26 21 22 27 30 30 31 33 33 33 36 22 22 21 19 15 14 13 13 12 12 14 18 21 24 24 26 28 28 28 27 24 25 23 23
25 24 31 29 27 23 17 15 14 12 9 7 8 9 11 12 16 22 29 34 30 21 18 14 14 14 15 13 14 19 17 20 24 26 26 26 26 27 27 27 23 25 25
25 24 28 16 14 11 9 7 8 7 8 10 10 11 9 10 10 11 9 14 14 21 22 18 16 18 16 14 13 16 17 20 20 21 22 22 23 24 24 25 22 22 25
26 26 15 12 12 11 11 10 9 6 7 8 12 18 23 25 21 12 9 10 12 14 20 20 19 18 15 15 15 18 15 18 22 22 21 20 21 23 22 23 24 24 24
19 15 13 11 8 5 5 6 8 13 10 10 11 11 11 13 15 16 12 10 11 14 19 17 18 17 17 15 15 15 14 17 20 23 23 24 18 19 20 20 23 23 24
14 12 9 8 8 9 10 14 22 18 12 14 12 10 12 12 13 13 13 14 16 19 23 20 19 19 20 19 18 19 19 22 25 28 26 25 26 23 22 21 19 20 23
13 11 11 11 12 15 24 24 14 11 12 11 12 14 15 15 16 16 17 18 20 20 24 23 21 21 22 22 22 21 22 23 22 24 25 28 31 29 31 30 27 24 21
12 11 13 18 23 18 14 14 14 15 15 16 16 17 18 18 18 18 18 19 20 20 23 25 24 23 23 23 24 24 23 23 23 23 25 27 30 34 36 33 33 37 32
17 17 19 18 16 17 18 16 15 16 19 20 20 19 18 17 17 17 18 19 20 21 22 24 27 24 24 25 26 26 27 27 27 28 30 31 33 36 34 36 39 34 35
16 17 20 20 19 19 18 18 18 21 21 19 17 16 16 17 19 19 20 22 23 24 24 25 27 27 26 25 27 29 29 27 28 27 28 29 29 26 24 28 37 38 38
17 17 18 17 18 18 18 20 18 18 19 20 19 19 19 20 25 28 26 24 24 25 25 26 27 28 27 26 27 27 29 28 28 27 28 29 27 27 29 33 36 38 39
17 17 18 18 18 17 20 22 22 19 20 22 23 23 23 25 24 25 28 28 26 25 27 26 26 27 27 24 22 23 25 25 27 23 26 30 27 27 28 28 28 28 26
18 19 18 17 17 17 23 26 27 25 23 24 24 24 24 23 24 22 23 25 25 25 26 26 27 28 27 23 22 22 22 24 24 21 21 24 20 21 25 25 28 30 32
20 19 19 18 20 20 26 28 27 25 22 23 23 23 24 24 22 22 21 21 21 21 22 23 25 26 26 24 24 25 26 26 26 25 22 25 22 25 24 25 28 27 27
20 19 19 20 22 22 24 27 26 22 21 23 22 21 22 22 21 22 21 22 22 23 23 27 27 27 29 29 28 24 24 25 29 29 25 25 24 24 24 26 26 25 27
21 20 20 20 22 21 22 24 20 20 21 21 21 20 20 20 20 20 19 21 23 24 22 22 21 21 24 25 25 28 27 28 27 23 22 24 22 21 22 22 22 22 25
Wind_Direction
309 312 308 311 308 309 311 310 308 309 312 312 311 306 299 293 291 272 274 296 294 292 288 278 271 268 261 257 252 245 246 240 233 234 233 230 229 229 231 233 232 231 226
320 318 315 312 308 305 302 300 301 305 300 301 299 296 291 281 278 280 265 282 289 288 284 283 280 272 266 258 253 253 250 243 241 238 236 236 233 232 233 232 235 231 228
334 330 318 317 313 308 309 304 302 302 297 289 291 285 286 285 270 284 273 241 278 285 287 274 270 269 270 265 261 252 248 251 249 244 238 239 238 235 234 236 234 234 233
324 322 312 310 312 313 304 299 294 288 284 279 274 268 266 262 265 273 259 252 229 249 294 286 274 271 266 268 269 262 253 246 247 250 249 243 241 239 240 236 235 237 235
308 303 300 298 296 295 295 287 283 279 278 275 271 268 262 262 262 259 249 245 241 242 249 287 297 279 271 268 268 271 268 254 247 247 248 249 245 243 238 236 237 238 235
315 309 305 303 300 290 288 284 278 276 269 271 270 266 260 258 256 252 252 248 247 236 249 247 278 281 292 273 269 268 269 267 259 247 247 249 248 242 248 245 238 236 238
317 311 306 301 298 290 287 290 282 275 272 264 266 263 261 257 252 248 250 245 244 239 243 242 256 255 278 302 284 265 268 269 265 256 253 251 251 248 242 245 251 240 235
312 313 307 303 297 294 289 284 282 280 273 264 258 262 264 262 254 250 249 244 237 234 237 239 238 272 278 278 279 291 266 262 263 263 255 256 255 249 247 242 245 248 253
313 316 313 310 307 300 293 288 284 279 278 272 260 250 265 254 258 253 237 237 235 232 234 233 247 263 272 281 288 283 279 265 259 257 259 255 257 259 253 252 247 242 244
317 316 313 309 305 300 293 291 288 281 278 275 270 262 255 259 267 268 239 233 224 224 228 233 246 257 253 270 265 277 270 267 263 257 253 257 259 262 261 255 256 249 247
314 312 311 309 304 301 297 298 294 285 276 271 270 268 264 265 255 254 254 235 227 223 227 238 246 253 259 264 262 254 264 256 259 262 257 255 255 258 262 260 256 254 252
315 313 311 306 300 301 305 304 302 310 312 296 277 267 270 263 268 253 255 251 249 232 229 239 249 259 257 261 257 245 256 247 249 255 258 255 252 252 253 258 253 252 252
317 314 310 303 299 307 314 317 316 315 327 299 287 275 279 269 261 265 263 259 257 245 249 248 259 262 260 252 252 250 252 239 232 236 245 247 250 248 246 250 250 245 250
315 307 298 293 291 293 287 288 276 291 326 320 309 298 307 302 298 298 295 273 276 266 266 259 255 255 253 251 243 247 244 255 239 231 233 232 236 242 238 237 241 243 245
305 295 293 294 296 301 299 287 284 279 314 332 329 320 324 317 321 326 319 285 271 279 277 263 261 256 259 254 252 254 247 257 257 238 239 237 232 233 236 232 237 244 249
304 291 294 287 288 294 297 299 294 297 309 316 315 304 299 294 290 287 275 269 265 267 272 268 265 263 261 259 257 260 258 249 258 260 254 243 239 233 228 226 230 240 246
299 287 289 290 293 289 295 305 305 292 288 290 292 292 290 288 283 276 271 268 266 266 270 275 269 266 264 264 264 264 262 260 259 260 265 263 246 243 242 241 242 241 248
296 291 278 277 295 314 309 296 287 284 281 285 286 289 290 289 279 276 272 269 268 267 269 273 270 267 264 263 264 266 266 263 260 256 257 259 262 254 245 246 249 248 251
286 298 315 313 312 309 304 299 292 287 286 287 289 288 287 281 278 276 272 271 271 271 268 269 271 267 265 263 264 263 261 262 261 257 254 254 255 259 259 253 247 245 246
317 312 309 306 306 306 303 299 294 292 290 289 286 284 282 278 277 276 276 276 275 273 270 267 267 268 264 263 262 264 264 262 262 260 258 256 255 258 257 256 255 249 244
316 314 314 313 311 310 303 290 302 295 294 293 288 286 283 278 271 278 279 276 272 271 269 267 266 267 264 263 260 263 264 264 262 260 260 258 258 257 257 260 257 255 248
321 321 319 317 315 312 295 303 303 299 293 290 289 287 286 286 288 287 283 281 271 264 264 264 264 262 262 262 263 260 260 261 263 256 258 259 255 253 252 249 249 252 254
321 320 319 317 315 312 298 300 301 299 293 289 288 286 287 285 285 285 280 276 277 273 265 261 260 258 261 261 262 262 260 259 259 258 259 261 256 256 246 247 247 247 243
320 319 316 315 313 310 299 305 305 304 296 291 288 287 286 285 281 276 277 274 272 272 269 266 261 261 259 258 254 257 258 260 258 256 254 262 259 258 258 255 250 246 245
320 316 315 314 313 307 304 305 309 307 298 291 290 287 280 277 276 277 277 278 277 274 274 274 267 261 258 255 252 256 257 254 257 253 249 255 259 262 263 262 256 253 242
317 311 310 314 310 313 308 311 316 310 300 298 296 294 291 287 284 284 281 279 283 281 280 274 270 272 261 253 253 246 250 250 251 256 247 249 256 257 262 268 260 259 255